Voltar ao catálogo

STARLINK-38262

AtivoComunicaçõesSSO
NORAD 100391·PAYLOAD·🇺🇸 United States

Lançado Aug 19, 2026 de Vandenberg Space Force Base

Loading…

Próximas Passagens (próximas 24 horas)

TLE

AtualizadoSource: Space-Track

Época: Sep 14, 2026, 20:40 UTC

1 A0391U 26190W   26257.86171622  .00224805  00000-0  14666-2 0  9992
2 A0391  97.2828 111.8734 0002125  87.3725 272.7784 15.75222544  5456

Acompanhe STARLINK-38262 em tempo real com AllMySat

Download on the App Store